CW2014 Weather Reports


time (UTC)temp
F
wind
direction
speed
knots
gust
knots
rain 1hr
in
rain 24hr
in
rain mn
in
humidity
%
barometer
mb
20260902163101 93 74 0.9 3.5 0.00 0.00 0.00 48 1013.5
20260902162523 93 177 0.9 4.3 0.00 0.00 0.00 48 1013.5
20260902162028 92 284 0.9 4.3 0.00 0.00 0.00 49 1013.5
20260902161548 92 202 0.9 5.2 0.00 0.00 0.00 50 1013.5
20260902161029 91 0 0.9 7.0 0.00 0.00 0.00 51 1013.5
20260902160529 91 207 1.7 7.0 0.00 0.00 0.00 51 1013.4
20260902160050 91 172 1.7 7.0 0.00 0.00 0.00 51 1013.4
20260902155525 91 167 0.9 5.2 0.00 0.00 0.00 52 1013.4
20260902155029 90 163 1.7 5.2 0.00 0.00 0.00 53 1013.4
20260902154548 90 0 0.0 3.5 0.00 0.00 0.00 53 1013.4
20260902154024 90 268 0.9 4.3 0.00 0.00 0.00 54 1013.3
20260902153526 89 214 0.9 4.3 0.00 0.00 0.00 53 1013.3
20260902153046 89 177 0.9 4.3 0.00 0.00 0.00 54 1013.3
20260902152525 88 179 0.9 5.2 0.00 0.00 0.00 56 1013.3
20260902152029 88 167 1.7 5.2 0.00 0.00 0.00 57 1013.3
20260902151556 87 0 0.9 5.2 0.00 0.00 0.00 59 1013.2
20260902151024 86 0 0.0 5.2 0.00 0.00 0.00 61 1013.2
20260902150526 86 201 1.7 6.1 0.00 0.00 0.00 61 1013.2
20260902150048 85 147 1.7 6.1 0.00 0.00 0.00 62 1013.3
20260902145524 85 135 1.7 6.1 0.00 0.00 0.00 62 1013.1
20260902145026 85 161 1.7 4.3 0.00 0.00 0.00 63 1013.1
20260902144549 84 165 0.9 7.8 0.00 0.00 0.00 64 1013.1
20260902144025 84 0 1.7 7.8 0.00 0.00 0.00 65 1013.1
20260902143524 83 150 1.7 7.8 0.00 0.00 0.00 65 1013.1
20260902143046 83 174 1.7 7.8 0.00 0.00 0.00 66 1013.0
20260902142525 83 142 3.5 7.8 0.00 0.00 0.00 66 1013.0
20260902142027 82 175 1.7 6.1 0.00 0.00 0.00 66 1013.0
20260902141550 82 183 2.6 9.6 0.00 0.00 0.00 67 1013.0
20260902141026 82 144 1.7 9.6 0.00 0.00 0.00 67 1012.8
20260902140525 82 139 4.3 10.4 0.00 0.00 0.00 67 1012.8
20260902140046 81 178 4.3 10.4 0.00 0.00 0.00 67 1012.7
20260902135526 81 151 3.5 9.6 0.00 0.00 0.00 68 1012.6
20260902135024 81 152 2.6 7.8 0.00 0.00 0.00 68 1012.6
20260902134551 81 0 3.5 7.8 0.00 0.00 0.00 68 1012.5
20260902134029 81 129 2.6 7.0 0.00 0.00 0.00 68 1012.5
20260902133526 80 148 2.6 7.0 0.00 0.00 0.00 68 1012.4
20260902133053 80 155 3.5 7.0 0.00 0.00 0.00 68 1012.4
20260902132525 80 176 2.6 7.0 0.00 0.00 0.00 68 1012.3
20260902132028 80 151 1.7 6.1 0.00 0.00 0.00 68 1012.3
20260902131555 80 145 1.7 7.8 0.00 0.00 0.00 68 1012.1
20260902131026 80 163 1.7 7.8 0.00 0.00 0.00 68 1012.1
20260902130526 80 107 1.7 5.2 0.00 0.00 0.00 68 1012.1
20260902130045 80 141 1.7 5.2 0.00 0.00 0.00 68 1012.0
20260902125525 80 103 1.7 8.7 0.00 0.00 0.00 68 1012.0
20260902125028 80 112 1.7 8.7 0.00 0.00 0.00 68 1011.9
20260902124549 80 136 1.7 8.7 0.00 0.00 0.00 68 1011.9
20260902124023 80 153 2.6 8.7 0.00 0.00 0.00 68 1012.0
20260902123526 81 155 3.5 8.7 0.00 0.00 0.00 67 1011.7
20260902123104 81 146 3.5 8.7 0.00 0.00 0.00 67 1011.8
20260902122529 81 149 2.6 8.7 0.00 0.00 0.00 67 1011.8
20260902122025 81 75 2.6 8.7 0.00 0.00 0.00 67 1011.8
20260902121555 81 146 2.6 7.8 0.00 0.00 0.00 67 1011.8
20260902121024 81 148 2.6 7.8 0.00 0.00 0.00 67 1011.8
20260902120527 81 153 1.7 7.0 0.00 0.00 0.00 67 1011.7
20260902120106 81 157 2.6 7.0 0.00 0.00 0.00 66 1011.6
20260902115524 81 137 1.7 6.1 0.00 0.00 0.00 66 1011.6
20260902115025 81 142 1.7 7.0 0.00 0.00 0.00 66 1011.6
20260902114548 81 175 1.7 7.0 0.00 0.00 0.00 66 1011.5
20260902114024 81 136 1.7 5.2 0.00 0.00 0.00 66 1011.5
20260902113524 81 65 1.7 5.2 0.00 0.00 0.00 67 1011.6
20260902113045 81 69 0.9 5.2 0.00 0.00 0.00 67 1011.6
20260902112526 82 97 0.9 5.2 0.00 0.00 0.00 66 1011.6
20260902112026 82 103 1.7 5.2 0.00 0.00 0.00 66 1011.5
20260902111554 82 107 0.0 4.3 0.00 0.00 0.00 66 1011.4
20260902111023 82 107 0.0 6.1 0.00 0.00 0.00 66 1011.5
20260902110523 82 136 1.7 6.1 0.00 0.00 0.00 65 1011.5
20260902110047 82 171 1.7 5.2 0.00 0.00 0.00 65 1011.6
20260902105524 82 150 0.9 3.5 0.00 0.00 0.00 65 1011.5
20260902105024 82 126 0.9 3.5 0.00 0.00 0.00 65 1011.6
20260902104556 82 107 0.9 3.5 0.00 0.00 0.00 65 1011.6
20260902104025 82 94 0.0 2.6 0.00 0.00 0.00 65 1011.6
20260902103525 82 94 0.9 2.6 0.00 0.00 0.00 64 1011.5
20260902103054 82 0 0.9 2.6 0.00 0.00 0.00 64 1011.5
20260902102525 82 94 0.0 2.6 0.00 0.00 0.00 64 1011.5
20260902102024 83 94 0.9 2.6 0.00 0.00 0.00 64 1011.5
20260902101550 83 148 0.9 2.6 0.00 0.00 0.00 64 1011.5
20260902101030 83 148 0.9 2.6 0.00 0.00 0.00 64 1011.6
20260902100524 83 149 0.9 2.6 0.00 0.00 0.00 64 1011.5
20260902095525 83 0 0.9 2.6 0.00 0.00 0.00 63 1011.4
20260902095024 83 0 0.9 2.6 0.00 0.00 0.00 63 1011.5
20260902094545 83 120 0.9 2.6 0.00 0.00 0.00 63 1011.4
20260902094024 83 148 0.9 2.6 0.00 0.00 0.00 63 1011.5
20260902093524 84 148 0.9 2.6 0.00 0.00 0.00 62 1011.4
20260902093050 84 148 0.9 4.3 0.00 0.00 0.00 62 1011.4
20260902092524 84 148 0.9 4.3 0.00 0.00 0.00 62 1011.4
20260902092024 84 148 1.7 4.3 0.00 0.00 0.00 61 1011.4
20260902091552 84 148 1.7 3.5 0.00 0.00 0.00 61 1011.3
20260902091026 84 0 0.0 2.6 0.00 0.00 0.00 61 1011.3
20260902090533 84 148 0.9 2.6 0.00 0.00 0.00 60 1011.3
20260902090047 84 148 0.9 1.7 0.00 0.00 0.00 60 1011.3
20260902085524 85 148 0.9 4.3 0.00 0.00 0.00 60 1011.4
20260902085024 85 148 0.0 4.3 0.00 0.00 0.00 59 1011.4
20260902084547 85 0 0.9 5.2 0.00 0.00 0.00 59 1011.5
20260902084024 85 171 1.7 5.2 0.00 0.00 0.00 59 1011.5
20260902083525 85 139 0.9 4.3 0.00 0.00 0.00 59 1011.6
20260902083108 85 137 0.9 4.3 0.00 0.00 0.00 59 1011.6
20260902082524 86 139 0.9 5.2 0.00 0.00 0.00 59 1011.6
20260902082025 86 139 0.9 5.2 0.00 0.00 0.00 58 1011.7
20260902081550 86 157 1.7 4.3 0.00 0.00 0.00 58 1011.6
20260902081027 86 146 1.7 4.3 0.00 0.00 0.00 58 1011.7
20260902080526 86 155 1.7 4.3 0.00 0.00 0.00 58 1011.7
20260902080050 86 182 0.9 4.3 0.00 0.00 0.00 58 1011.6
20260902075525 87 147 0.9 4.3 0.00 0.00 0.00 57 1011.5
20260902075026 87 148 1.7 4.3 0.00 0.00 0.00 57 1011.5
20260902074552 87 140 1.7 3.5 0.00 0.00 0.00 57 1011.5
20260902074026 87 140 0.9 2.6 0.00 0.00 0.00 57 1011.5
20260902073524 87 118 0.9 2.6 0.00 0.00 0.00 57 1011.5
20260902073041 87 94 0.9 2.6 0.00 0.00 0.00 56 1011.5
20260902072526 88 94 0.0 2.6 0.00 0.00 0.00 56 1011.4
20260902072025 88 94 0.0 2.6 0.00 0.00 0.00 55 1011.4
20260902071547 88 0 0.9 2.6 0.00 0.00 0.00 54 1011.4
20260902071024 88 117 0.9 2.6 0.00 0.00 0.00 53 1011.3
20260902070525 88 117 0.0 2.6 0.00 0.00 0.00 53 1011.1
20260902070049 88 0 0.0 2.6 0.00 0.00 0.00 52 1011.1
20260902065529 89 117 0.0 2.6 0.00 0.00 0.00 52 1011.1
20260902065025 89 0 0.0 1.7 0.00 0.00 0.00 52 1011.1
20260902064546 89 117 0.9 1.7 0.00 0.00 0.00 51 1011.1
20260902064024 89 117 0.0 1.7 0.00 0.00 0.00 51 1011.1
20260902063525 89 117 0.0 1.7 0.00 0.00 0.00 51 1011.0
20260902063057 89 117 0.0 1.7 0.00 0.00 0.00 50 1011.1
20260902062525 89 0 0.0 1.7 0.00 0.00 0.00 51 1011.0
20260902062026 89 117 0.0 2.6 0.00 0.00 0.00 50 1010.9
20260902061549 89 117 0.0 3.5 0.00 0.00 0.00 51 1010.9
20260902061025 89 130 0.9 4.3 0.00 0.00 0.00 51 1011.1
20260902060526 89 171 1.7 4.3 0.00 0.00 0.00 52 1011.1
20260902060047 89 186 0.9 3.5 0.00 0.00 0.00 52 1011.1
20260902055523 89 153 0.9 4.3 0.00 0.00 0.00 52 1011.1
20260902055025 89 177 0.9 4.3 0.00 0.00 0.00 52 1011.3
20260902054551 89 0 1.7 3.5 0.00 0.00 0.00 52 1011.3
20260902054028 89 200 0.9 3.5 0.00 0.00 0.00 53 1011.4
20260902053526 89 187 0.9 3.5 0.00 0.00 0.00 53 1011.3
20260902053049 89 187 0.9 3.5 0.00 0.00 0.00 52 1011.3
20260902052525 89 187 0.9 4.3 0.00 0.00 0.00 52 1011.3
20260902052024 89 188 0.9 4.3 0.00 0.00 0.00 52 1011.2
20260902051547 89 185 0.9 4.3 0.00 0.00 0.00 51 1011.2
20260902051023 89 144 1.7 4.3 0.00 0.00 0.00 51 1011.1
20260902050527 89 140 1.7 4.3 0.00 0.00 0.00 51 1011.0
20260902050058 89 153 1.7 3.5 0.00 0.00 0.00 51 1011.0
20260902045526 89 175 0.9 2.6 0.00 0.00 0.00 50 1011.1
20260902045024 90 158 0.9 2.6 0.00 0.00 0.00 49 1010.9
20260902044552 90 158 0.0 1.7 0.00 0.00 0.00 49 1010.9
20260902044024 90 0 0.0 1.7 0.00 0.00 0.00 49 1010.8
20260902043524 90 158 0.0 2.6 0.00 0.00 0.00 48 1010.8
20260902043051 90 158 0.9 2.6 0.00 0.00 0.00 48 1010.9
20260902042531 90 158 0.9 2.6 0.00 0.00 0.00 47 1010.8
20260902042025 91 158 0.0 2.6 0.00 0.00 0.00 46 1010.8
20260902041544 91 158 0.0 0.9 0.00 0.00 0.00 46 1010.8
20260902041024 91 0 0.0 1.7 0.00 0.00 0.00 46 1010.7
20260902040523 91 0 0.0 1.7 0.00 0.00 0.00 45 1010.7
20260902040058 91 158 0.0 1.7 0.00 0.00 0.00 45 1010.6
20260902035524 91 158 0.0 1.7 0.00 0.00 0.00 44 1010.4
20260902035023 91 158 0.0 1.7 0.00 0.00 0.00 44 1010.4
20260902034549 91 158 0.0 1.7 0.00 0.00 0.00 44 1010.4
20260902034025 91 158 0.9 1.7 0.00 0.00 0.00 44 1010.3
20260902033524 91 158 0.0 1.7 0.00 0.00 0.00 43 1010.2
20260902033051 92 0 0.9 1.7 0.00 0.00 0.00 43 1010.0
20260902032523 92 219 0.0 1.7 0.00 0.00 0.00 42 1009.9
20260902032025 92 219 0.0 1.7 0.00 0.00 0.00 41 1009.8
20260902031555 92 0 0.0 1.7 0.00 0.00 0.00 41 1009.8
20260902031029 92 219 0.0 1.7 0.00 0.00 0.00 40 1009.7
20260902030525 93 219 0.0 1.7 0.00 0.00 0.00 40 1009.6
20260902030043 93 219 0.0 0.9 0.00 0.00 0.00 39 1009.6
20260902025526 93 0 0.0 0.9 0.00 0.00 0.00 39 1009.5
20260902025026 93 0 0.0 0.9 0.00 0.00 0.00 39 1009.6
20260902024556 93 221 0.0 0.9 0.00 0.00 0.00 39 1009.6
20260902024023 94 0 0.0 0.0 0.00 0.00 0.00 39 1009.4
20260902023523 94 0 0.0 1.7 0.00 0.00 0.00 39 1009.5
20260902023046 94 0 0.0 1.7 0.00 0.00 0.00 38 1009.4
20260902022525 94 0 0.0 1.7 0.00 0.00 0.00 38 1009.4
20260902022024 94 220 0.0 0.9 0.00 0.00 0.00 38 1009.3
20260902021558 95 220 0.0 1.7 0.00 0.00 0.00 37 1009.2
20260902021025 95 0 0.0 1.7 0.00 0.00 0.00 37 1009.2
20260902020526 95 217 0.0 1.7 0.00 0.00 0.00 37 1009.2
20260902020049 95 240 0.0 1.7 0.00 0.00 0.00 36 1009.3
20260902015524 95 0 0.0 2.6 0.00 0.00 0.00 36 1009.1
20260902015024 95 0 0.0 2.6 0.00 0.00 0.00 36 1009.1
20260902014550 96 315 0.9 2.6 0.00 0.00 0.00 36 1009.1
20260902014024 96 0 0.0 2.6 0.00 0.00 0.00 36 1009.1
20260902013523 96 314 0.0 2.6 0.00 0.00 0.00 36 1009.1
20260902013049 96 0 0.9 3.5 0.00 0.00 0.00 36 1009.1
20260902012524 96 0 0.9 4.3 0.00 0.00 0.00 36 1009.2
20260902012025 96 306 0.9 4.3 0.00 0.00 0.00 36 1009.3
20260902011549 96 308 0.9 4.3 0.00 0.00 0.00 36 1009.4
20260902011029 96 0 1.7 4.3 0.00 0.00 0.00 35 1009.4
20260902010525 97 286 1.7 5.2 0.00 0.00 0.00 35 1009.5
20260902010047 97 307 1.7 7.8 0.00 0.00 0.00 35 1009.6
20260902005526 97 300 2.6 7.8 0.00 0.00 0.00 35 1009.4
20260902005025 98 246 0.9 5.2 0.00 0.00 0.00 35 1009.5
20260902004547 98 331 0.0 2.6 0.00 0.00 0.00 34 1009.5
20260902004024 98 5 0.0 4.3 0.00 0.00 0.00 34 1009.6
20260902003525 97 63 0.9 6.1 0.00 0.00 0.00 34 1009.7
20260902003054 98 330 1.7 7.0 0.00 0.00 0.00 35 1009.7
20260902002525 98 297 1.7 7.0 0.00 0.00 0.00 35 1009.7
20260902002027 98 325 1.7 7.0 0.00 0.00 0.00 34 1009.8
20260902001554 98 250 1.7 6.1 0.00 0.00 0.00 35 1009.7
20260902001026 99 263 2.6 6.1 0.00 0.00 0.00 35 1009.8
20260902000527 98 296 0.9 7.8 0.00 0.00 0.00 36 1009.8
20260902000047 98 302 2.6 7.8 0.00 0.00 0.00 36 1009.7
20260901235525 98 235 3.5 7.8 0.00 0.00 0.00 36 1009.8
20260901235025 98 333 0.9 5.2 0.00 0.00 0.00 37 1009.8
20260901234548 98 0 0.9 7.8 0.00 0.00 0.00 37 1009.8
20260901234028 99 264 2.6 8.7 0.00 0.00 0.00 37 1009.9
20260901233524 99 271 2.6 8.7 0.00 0.00 0.00 36 1010.0
20260901233053 99 211 3.5 8.7 0.00 0.00 0.00 36 1009.9
20260901232528 98 279 2.6 7.8 0.00 0.00 0.00 35 1010.0
20260901232027 99 315 2.6 7.0 0.00 0.00 0.00 35 1010.0
20260901231550 99 0 0.0 7.0 0.00 0.00 0.00 35 1010.1
20260901231024 99 297 1.7 7.0 0.00 0.00 0.00 35 1010.1
20260901230526 100 192 1.7 5.2 0.00 0.00 0.00 36 1010.2
20260901225524 99 302 0.9 6.1 0.00 0.00 0.00 37 1010.2
20260901225025 100 249 0.9 3.5 0.00 0.00 0.00 36 1010.2
20260901224548 100 275 0.9 6.1 0.00 0.00 0.00 37 1010.3
20260901224029 100 232 1.7 6.1 0.00 0.00 0.00 38 1010.3
20260901223524 100 0 1.7 6.1 0.00 0.00 0.00 37 1010.4
20260901223102 100 302 0.9 5.2 0.00 0.00 0.00 38 1010.4
20260901222522 100 173 0.9 6.1 0.00 0.00 0.00 37 1010.5
20260901222024 99 182 0.0 6.1 0.00 0.00 0.00 38 1010.5
20260901221547 100 157 1.7 7.8 0.00 0.00 0.00 37 1010.6
20260901221026 99 205 0.9 7.8 0.00 0.00 0.00 38 1010.7
20260901220530 99 215 2.6 8.7 0.00 0.00 0.00 38 1010.7
20260901220126 100 250 1.7 8.7 0.00 0.00 0.00 38 1010.7
20260901215524 99 155 0.9 6.1 0.00 0.00 0.00 39 1010.8
20260901215027 99 180 1.7 6.1 0.00 0.00 0.00 39 1010.9
20260901214554 99 167 1.7 7.0 0.00 0.00 0.00 38 1011.1
20260901214024 99 0 1.7 8.7 0.00 0.00 0.00 39 1011.1
20260901213525 99 0 1.7 8.7 0.00 0.00 0.00 39 1011.2
20260901213052 98 213 3.5 7.8 0.00 0.00 0.00 40 1011.3
20260901212524 98 156 0.9 7.8 0.00 0.00 0.00 39 1011.3
20260901212025 98 104 1.7 8.7 0.00 0.00 0.00 40 1011.4
20260901211548 98 155 1.7 8.7 0.00 0.00 0.00 40 1011.6
20260901211023 98 105 1.7 8.7 0.00 0.00 0.00 40 1011.6
20260901210524 98 146 1.7 8.7 0.00 0.00 0.00 41 1011.7
20260901210048 98 162 1.7 7.8 0.00 0.00 0.00 40 1011.8
20260901205524 98 0 1.7 9.6 0.00 0.00 0.00 40 1012.0
20260901205025 98 304 2.6 9.6 0.00 0.00 0.00 40 1012.0
20260901204551 98 0 0.9 8.7 0.00 0.00 0.00 41 1012.1
20260901204026 98 238 1.7 9.6 0.00 0.00 0.00 41 1012.1
20260901203526 97 157 3.5 9.6 0.00 0.00 0.00 41 1012.2
20260901203053 98 286 1.7 7.0 0.00 0.00 0.00 40 1012.3
20260901202526 98 346 1.7 6.1 0.00 0.00 0.00 42 1012.4
20260901202026 97 0 0.9 7.0 0.00 0.00 0.00 43 1012.4
20260901201553 96 232 0.9 7.0 0.00 0.00 0.00 44 1012.3
20260901201026 95 309 0.9 4.3 0.00 0.00 0.00 45 1012.5
20260901200526 95 60 1.7 7.0 0.00 0.00 0.00 44 1012.6
20260901200051 95 308 1.7 7.0 0.00 0.00 0.00 44 1012.6
20260901195525 95 306 1.7 6.1 0.00 0.00 0.00 44 1012.7
20260901195028 96 304 0.9 4.3 0.00 0.00 0.00 43 1012.7
20260901194554 95 0 0.0 5.2 0.00 0.00 0.00 45 1012.8
20260901194025 95 82 0.9 5.2 0.00 0.00 0.00 45 1012.8
20260901193524 94 61 0.9 3.5 0.00 0.00 0.00 45 1012.9
20260901193049 93 119 0.0 5.2 0.00 0.00 0.00 47 1013.0
20260901192525 93 0 0.0 7.8 0.00 0.00 0.00 47 1013.1
20260901192026 92 337 1.7 7.8 0.00 0.00 0.00 46 1013.1
20260901191608 93 301 2.6 7.8 0.00 0.00 0.00 46 1013.2
20260901191027 93 301 0.9 6.1 0.00 0.00 0.00 47 1013.2
20260901190531 92 0 0.9 6.1 0.00 0.00 0.00 48 1013.3
20260901190050 92 211 1.7 6.1 0.00 0.00 0.00 49 1013.4
20260901185527 92 302 0.9 4.3 0.00 0.00 0.00 48 1013.5
20260901185027 92 10 1.7 6.1 0.00 0.00 0.00 48 1013.5
20260901184608 92 55 0.9 7.0 0.00 0.00 0.00 48 1013.5
20260901184030 92 335 2.6 7.0 0.00 0.00 0.00 47 1013.6
20260901183529 94 322 0.9 4.3 0.00 0.00 0.00 46 1013.7
20260901183055 93 0 0.0 3.5 0.00 0.00 0.00 47 1013.7
20260901182530 93 0 0.9 3.5 0.00 0.00 0.00 48 1013.8
20260901182032 93 5 0.0 5.2 0.00 0.00 0.00 48 1013.9
20260901181558 92 139 1.7 5.2 0.00 0.00 0.00 49 1013.9
20260901181029 91 161 0.9 6.1 0.00 0.00 0.00 50 1014.0
20260901180525 91 259 0.0 6.1 0.00 0.00 0.00 49 1014.0
20260901180048 91 229 1.7 7.0 0.00 0.00 0.00 50 1014.1
20260901175524 91 227 1.7 7.0 0.00 0.00 0.00 50 1014.1
20260901175024 90 294 0.9 5.2 0.00 0.00 0.00 51 1014.1
20260901174555 90 0 0.9 7.0 0.00 0.00 0.00 52 1014.2
20260901174024 90 327 2.6 7.0 0.00 0.00 0.00 51 1014.1
20260901173529 91 294 0.9 7.0 0.00 0.00 0.00 50 1014.2
20260901173052 91 103 1.7 7.0 0.00 0.00 0.00 50 1014.2
20260901172525 90 182 0.9 5.2 0.00 0.00 0.00 50 1014.1
20260901172029 90 56 0.9 5.2 0.00 0.00 0.00 52 1014.2
20260901171549 89 270 0.9 5.2 0.00 0.00 0.00 52 1014.1
20260901171026 89 202 1.7 5.2 0.00 0.00 0.00 52 1014.1
20260901170524 89 184 0.9 6.1 0.00 0.00 0.00 53 1014.1
20260901170051 89 199 1.7 6.1 0.00 0.00 0.00 53 1014.1
20260901165528 88 192 1.7 5.2 0.00 0.04 0.00 54 1014.0
20260901165024 89 176 0.9 5.2 0.00 0.04 0.00 54 1014.0
20260901164548 88 153 1.7 5.2 0.00 0.04 0.00 54 1014.0
20260901164023 88 0 0.9 4.3 0.00 0.04 0.00 55 1013.9
20260901163528 87 0 0.9 4.3 0.00 0.04 0.00 56 1013.9